Regional Weather Roundup
Issued by NWS

Home | Current Version | Previous Version | Text Only | Print | Product List | Glossary On
Versions: 1 2 3 4 5 6 7 8 9 10 11 12 13 14 15 16 17 18 19 20 21 22 23 24 25 26 27 28 29 30 31 32 33 34 35 36 37 38 39 40 41 42 43 44 45 46 47 48 49 50
000
ASUS45 KSLC 281110
RWRUT

UTAH REGIONAL WEATHER ROUNDUP
NATIONAL WEATHER SERVICE SALT LAKE CITY UT
500 AM MDT TUE APR 28 2015

UTZ001>011-023>025-281200-

NORTHERN UTAH

CITY           SKY/WX    TMP DP  RH WIND       PRES   REMARKS
BRIGHAM CITY   CLEAR     43  35  72 NW3       30.24F
HILL AFB       CLEAR     46  37  70 E18       30.23F
LOGAN          CLEAR     40  35  83 CALM      30.26S
OGDEN          CLEAR     45  37  73 SW5       30.23R
PROVO AIRPORT  CLEAR     41  36  81 CALM      30.25S
SALT LAKE CITY CLEAR     45  38  76 SE7       30.22F
VERNAL         CLEAR     38  31  76 W5        30.29R WCI  34
WENDOVER       CLEAR     45  23  42 W8        30.24R
HEBER CITY     CLEAR     34  32  93 CALM      30.29S
WEST JORDAN    CLEAR     41  37  87 S5        30.24F

$$

UTZ012>022-026-027-281200-

SOUTHERN/CENTRAL UTAH

CITY           SKY/WX    TMP DP  RH WIND       PRES   REMARKS
BLANDING       CLEAR     39  35  83 NW6       30.29S WCI  35
BRYCE CANYON   CLEAR     29  26  89 W7        30.30S WCI  22
CEDAR CITY     CLEAR     39  33  79 CALM      30.23S
DELTA          CLEAR     40  37  89 CALM      30.24S
HANKSVILLE     CLEAR     41  36  81 CALM      30.24S
MILFORD        CLEAR     35  26  69 W3        30.23S
MOAB/CYNLANDS  CLEAR     48  38  68 CALM      30.19S
PRICE          CLEAR     44  31  60 N12       30.26S
ST GEORGE      SUNNY     59  34  38 SE7       30.13S
KANAB          CLEAR     48  34  57 NW12      30.22S

$$

REGIONAL REPORTS     COLORADO/ARIZONA

CITY           SKY/WX    TMP DP  RH WIND       PRES   REMARKS
CRAIG, CO      CLOUDY    33  32  96 CALM      30.31R
GRAND JUNCTION PTCLDY    42  40  92 NE3       30.22R
RIFLE          MOCLDY    39  36  89 E5        30.27R
MONTROSE       CLOUDY    46  39  76 CALM      30.26S
CORTEZ         CLEAR     39  36  89 CALM      30.24S
PAGE, AZ       NOT AVBL
GRAND CANYON   CLEAR     32  28  85 NE6       30.23S WCI  26
KINGMAN        CLEAR     47  31  53 E5        30.07S
FLAGSTAFF      CLEAR     31  29  92 CALM      30.23R

$$

REGIONAL REPORTS    NEVADA/IDAHO/WYOMING

CITY           SKY/WX    TMP DP  RH WIND       PRES   REMARKS
LAS VEGAS, NV  CLEAR     63  34  33 SW7       30.02R
ELY            CLEAR     26  19  74 S8        30.28S WCI  18
ELKO           CLEAR     34  26  72 CALM      30.23R
POCATELLO, ID  CLEAR     30  24  78 NW5       30.27R WCI  25
BURLEY         CLEAR     33  28  81 CALM      30.23S
EVANSTON, WY   PTCLDY    36  29  75 E8        30.33R WCI  30
ROCK SPRINGS   CLEAR     33  30  88 E7        30.34F WCI  27

$$


USA.gov is the U.S. government's official web portal to all federal, state and local government web resources and services.